Date,TemperatureHighF,TemperatureAvgF,TemperatureLowF,DewpointHighF,DewpointAvgF,DewpointLowF,HumidityHigh,HumidityAvg,HumidityLow,PressureMaxIn,PressureMinIn,WindSpeedMaxMPH,WindSpeedAvgMPH,GustSpeedMaxMPH,PrecipitationSumIn
2013-2-1,69.0,53.3,41.0,43.0,34.3,27.0,80,53,21,30.38,30.25,5,1,13,0.05
2013-2-2,74.0,56.0,39.0,46.0,41.7,36.0,90,62,32,30.33,30.16,6,2,11,0.03
2013-2-3,73.0,56.1,43.0,52.0,44.6,37.0,92,68,42,30.22,30.09,7,3,16,0.00
2013-2-4,72.0,54.1,39.0,50.0,41.1,37.0,98,68,29,30.17,30.06,6,1,11,0.00
2013-2-5,80.0,59.1,41.0,54.0,46.8,37.0,92,67,38,30.12,30.01,5,1,11,0.00
2013-2-6,79.0,67.1,55.0,62.0,57.2,52.0,91,72,51,30.14,30.04,4,1,10,0.00
2013-2-7,84.0,70.0,59.0,67.0,61.6,58.0,97,77,48,30.09,29.90,7,3,18,0.01
2013-2-8,83.0,69.1,56.0,65.0,60.0,54.0,95,76,38,30.10,29.90,8,4,15,0.01
2013-2-9,78.0,63.3,53.0,58.0,54.6,52.0,97,76,42,30.22,30.09,7,3,15,0.01
2013-2-10,82.0,67.1,58.0,62.0,58.4,54.0,92,76,49,30.28,30.16,9,4,18,0.01
2013-2-11,85.0,68.8,56.0,65.0,60.8,55.0,98,78,47,30.23,30.08,6,2,14,0.00
2013-2-12,86.0,71.6,62.0,70.0,65.1,61.0,98,82,50,30.13,29.96,6,2,14,0.01
2013-2-13,86.0,73.1,62.0,72.0,67.3,58.0,97,84,56,30.00,29.86,11,4,25,0.35
2013-2-14,65.0,61.0,59.0,63.0,59.1,57.0,98,93,86,30.06,29.95,5,1,13,0.79
2013-2-15,69.0,58.8,54.0,62.0,56.1,51.0,98,92,71,30.10,29.97,4,1,10,0.17
2013-2-16,70.0,56.2,49.0,51.0,46.8,32.0,97,73,46,30.14,29.95,13,4,28,0.01
2013-2-17,57.0,45.4,35.0,36.0,23.8,19.0,75,45,23,30.37,30.13,9,3,23,0.00
2013-2-18,73.0,50.3,31.0,49.0,38.6,29.0,94,68,38,30.39,30.24,10,3,18,0.00
2013-2-19,79.0,61.5,47.0,58.0,52.2,45.0,97,75,43,30.24,30.09,8,2,19,0.00
2013-2-20,80.0,66.2,57.0,65.0,60.2,56.0,98,83,57,30.15,30.02,4,1,12,0.00
2013-2-21,84.0,68.7,55.0,66.0,60.3,54.0,97,77,46,30.13,30.00,5,1,11,0.00
2013-2-22,88.0,72.6,61.0,71.0,64.7,60.0,98,79,43,30.10,29.99,6,1,20,0.00
2013-2-23,88.0,74.7,68.0,70.0,68.0,66.0,97,82,52,30.04,29.90,9,3,20,0.00
2013-2-24,82.0,72.4,67.0,72.0,68.1,66.0,97,87,63,29.98,29.89,7,3,14,0.00
2013-2-25,89.0,74.3,66.0,71.0,66.4,65.0,99,79,47,29.95,29.79,5,2,16,0.01
2013-2-26,77.0,70.2,63.0,73.0,67.8,62.0,96,92,83,29.90,29.75,7,3,18,0.30
2013-2-27,76.0,64.4,55.0,62.0,57.6,51.0,98,81,50,29.99,29.89,7,2,15,0.01
2013-2-28,76.0,61.0,48.0,56.0,51.5,47.0,97,74,41,30.03,29.92,11,3,22,0.00